| time (UTC) | temp F | wind direction | speed MPH | gust MPH | rain 1hr in | rain 24hr in | rain mn in | humidity % | barometer mb |
| 20260904003104 | 78 | 0 | 0.0 | 2.0 | 0.00 | 1.94 | 1.94 | 100 | 1011.9 |
| 20260904001558 | 78 | 0 | 0.0 | 2.0 | 0.00 | 1.94 | 1.94 | 100 | 1011.9 |
| 20260904000106 | 79 | 0 | 0.0 | 2.0 | 0.00 | 1.94 | 1.94 | 100 | 1011.8 |
| 20260903234603 | 78 | 0 | 0.0 | 1.0 | 0.00 | 1.94 | 1.94 | 100 | 1011.9 |
| 20260903233114 | 78 | 106 | 0.0 | 5.0 | 0.00 | 1.94 | 1.94 | 100 | 1012.1 |
| 20260903231559 | 78 | 105 | 0.0 | 3.0 | 0.00 | 1.94 | 1.94 | 100 | 1011.9 |
| 20260903230107 | 78 | 102 | 0.0 | 3.0 | 0.00 | 1.94 | 1.94 | 100 | 1012.0 |
| 20260903224606 | 78 | 0 | 0.0 | 1.0 | 0.00 | 1.94 | 1.94 | 100 | 1012.2 |
| 20260903223115 | 77 | 127 | 1.0 | 4.0 | 0.00 | 1.94 | 1.94 | 100 | 1012.2 |
| 20260903221559 | 77 | 120 | 0.0 | 4.0 | 0.02 | 1.94 | 1.94 | 100 | 1012.0 |
| 20260903220123 | 76 | 120 | 0.0 | 4.0 | 0.04 | 1.94 | 1.94 | 100 | 1012.2 |
| 20260903214604 | 76 | 201 | 1.0 | 2.0 | 0.05 | 1.94 | 1.94 | 100 | 1012.4 |
| 20260903213102 | 76 | 0 | 0.0 | 2.0 | 0.05 | 1.94 | 1.94 | 100 | 1012.5 |
| 20260903211600 | 76 | 0 | 0.0 | 1.0 | 0.03 | 1.92 | 1.92 | 100 | 1013.2 |
| 20260903210101 | 75 | 0 | 0.0 | 1.0 | 0.01 | 1.90 | 1.90 | 100 | 1013.1 |
| 20260903204605 | 75 | 0 | 0.0 | 1.0 | 0.00 | 1.89 | 1.89 | 100 | 1013.1 |
| 20260903203108 | 75 | 0 | 0.0 | 1.0 | 0.03 | 1.89 | 1.89 | 100 | 1013.3 |
| 20260903201559 | 75 | 0 | 0.0 | 1.0 | 0.12 | 1.89 | 1.89 | 100 | 1013.7 |
| 20260903200111 | 74 | 0 | 0.0 | 1.0 | 0.28 | 1.89 | 1.89 | 99 | 1013.7 |
| 20260903194557 | 74 | 0 | 0.0 | 1.0 | 0.95 | 1.89 | 1.89 | 99 | 1013.7 |
| 20260903193101 | 73 | 351 | 0.0 | 4.0 | 1.84 | 1.86 | 1.86 | 99 | 1013.9 |
| 20260903191606 | 73 | 0 | 0.0 | 6.0 | 1.75 | 1.77 | 1.77 | 98 | 1014.1 |
| 20260903190107 | 74 | 21 | 0.0 | 11.0 | 1.58 | 1.60 | 1.60 | 97 | 1014.2 |
| 20260903184604 | 76 | 0 | 3.0 | 16.0 | 0.89 | 0.91 | 0.91 | 91 | 1014.5 |
| 20260903183102 | 86 | 128 | 4.0 | 9.0 | 0.00 | 0.02 | 0.02 | 83 | 1013.6 |
| 20260903181606 | 91 | 257 | 0.0 | 3.0 | 0.00 | 0.02 | 0.02 | 75 | 1013.2 |
| 20260903180106 | 94 | 117 | 0.0 | 4.0 | 0.00 | 0.02 | 0.02 | 69 | 1013.1 |
| 20260903174604 | 95 | 228 | 1.0 | 3.0 | 0.00 | 0.02 | 0.02 | 68 | 1013.4 |
| 20260903173103 | 95 | 219 | 1.0 | 5.0 | 0.00 | 0.02 | 0.02 | 72 | 1013.3 |
| 20260903171559 | 93 | 228 | 0.0 | 3.0 | 0.00 | 0.02 | 0.02 | 71 | 1013.5 |
| 20260903170104 | 93 | 197 | 0.0 | 4.0 | 0.00 | 0.02 | 0.02 | 71 | 1013.9 |
| 20260903164611 | 92 | 122 | 1.0 | 3.0 | 0.00 | 0.02 | 0.02 | 74 | 1014.2 |
| 20260903163102 | 89 | 119 | 0.0 | 3.0 | 0.00 | 0.02 | 0.02 | 85 | 1014.2 |
| 20260903161604 | 88 | 0 | 0.0 | 5.0 | 0.00 | 0.02 | 0.02 | 85 | 1014.4 |
| 20260903160107 | 88 | 99 | 0.0 | 4.0 | 0.00 | 0.02 | 0.02 | 85 | 1014.2 |
| 20260903154602 | 87 | 191 | 0.0 | 2.0 | 0.00 | 0.02 | 0.02 | 87 | 1014.2 |
| 20260903153102 | 86 | 0 | 1.0 | 5.0 | 0.00 | 0.02 | 0.02 | 90 | 1014.2 |
| 20260903151607 | 85 | 0 | 0.0 | 3.0 | 0.00 | 0.02 | 0.02 | 92 | 1014.3 |
| 20260903150114 | 84 | 209 | 0.0 | 3.0 | 0.00 | 0.02 | 0.02 | 93 | 1014.3 |
| 20260903144615 | 84 | 154 | 1.0 | 3.0 | 0.00 | 0.02 | 0.02 | 94 | 1014.4 |
| 20260903143101 | 84 | 134 | 0.0 | 3.0 | 0.00 | 0.02 | 0.02 | 95 | 1014.3 |
| 20260903141602 | 82 | 102 | 1.0 | 4.0 | 0.00 | 0.02 | 0.02 | 98 | 1014.2 |
| 20260903140100 | 81 | 0 | 0.0 | 1.0 | 0.00 | 0.02 | 0.02 | 99 | 1014.2 |
| 20260903134633 | 80 | 0 | 0.0 | 1.0 | 0.00 | 0.02 | 0.02 | 99 | 1014.2 |
| 20260903133112 | 80 | 60 | 0.0 | 1.0 | 0.00 | 0.02 | 0.02 | 99 | 1014.1 |
| 20260903131610 | 0 | 0.0 | 0.0 | 0.00 | 0.02 | 0.02 | 1014.1 | ||
| 20260903130104 | 0 | 0.0 | 0.0 | 0.00 | 0.02 | 0.02 | 1013.9 | ||
| 20260903124603 | 0 | 0.0 | 0.0 | 0.00 | 0.02 | 0.02 | 1013.7 | ||
| 20260903123059 | 0 | 0.0 | 0.0 | 0.00 | 0.02 | 0.02 | 1013.5 | ||
| 20260903121606 | 0 | 0.0 | 0.0 | 0.00 | 0.02 | 0.02 | 1013.3 | ||
| 20260903120123 | 0 | 0.0 | 0.0 | 0.00 | 0.02 | 0.02 | 1013.3 | ||
| 20260903114607 | 0 | 0.0 | 0.0 | 0.00 | 0.02 | 0.02 | 1013.4 | ||
| 20260903113107 | 0 | 0.0 | 1.0 | 0.01 | 0.02 | 0.02 | 1013.3 | ||
| 20260903111558 | 80 | 150 | 0.0 | 3.0 | 0.01 | 0.02 | 0.02 | 97 | 1013.3 |
| 20260903110106 | 80 | 219 | 0.0 | 3.0 | 0.02 | 0.02 | 0.02 | 97 | 1013.3 |
| 20260903104622 | 80 | 172 | 1.0 | 4.0 | 0.02 | 0.02 | 0.02 | 97 | 1013.1 |
| 20260903103108 | 80 | 81 | 0.0 | 4.0 | 0.01 | 0.01 | 0.01 | 97 | 1013.1 |
| 20260903101605 | 80 | 0 | 0.0 | 4.0 | 0.01 | 0.01 | 0.01 | 96 | 1013.0 |
| 20260903094620 | 81 | 0 | 0.0 | 1.0 | 0.00 | 0.00 | 0.00 | 95 | 1013.0 |
| 20260903093100 | 81 | 195 | 0.0 | 3.0 | 0.00 | 0.00 | 0.00 | 95 | 1013.0 |
| 20260903091616 | 81 | 0 | 0.0 | 4.0 | 0.00 | 0.00 | 0.00 | 94 | 1012.9 |
| 20260903084602 | 81 | 135 | 0.0 | 4.0 | 0.00 | 0.00 | 0.00 | 94 | 1013.0 |
| 20260903083059 | 81 | 0 | 0.0 | 7.0 | 0.00 | 0.00 | 0.00 | 94 | 1012.9 |
| 20260903081602 | 81 | 250 | 0.0 | 3.0 | 0.00 | 0.00 | 0.00 | 94 | 1012.9 |
| 20260903080059 | 81 | 224 | 0.0 | 3.0 | 0.00 | 0.00 | 0.00 | 92 | 1012.8 |
| 20260903074606 | 81 | 0 | 0.0 | 4.0 | 0.00 | 0.00 | 0.00 | 92 | 1012.9 |
| 20260903073104 | 81 | 238 | 2.0 | 6.0 | 0.00 | 0.00 | 0.00 | 93 | 1012.9 |
| 20260903071609 | 81 | 0 | 1.0 | 5.0 | 0.00 | 0.00 | 0.00 | 93 | 1012.9 |
| 20260903070059 | 81 | 219 | 0.0 | 3.0 | 0.00 | 0.00 | 0.00 | 93 | 1013.1 |
| 20260903064603 | 81 | 0 | 0.0 | 2.0 | 0.00 | 0.00 | 0.00 | 93 | 1013.4 |
| 20260903063111 | 82 | 243 | 0.0 | 2.0 | 0.00 | 0.00 | 0.00 | 93 | 1013.6 |
| 20260903061600 | 82 | 0 | 0.0 | 2.0 | 0.00 | 0.00 | 0.00 | 93 | 1013.6 |
| 20260903060107 | 82 | 231 | 0.0 | 0.0 | 0.00 | 0.00 | 0.00 | 92 | 1013.6 |
| 20260903054607 | 82 | 0 | 0.0 | 0.0 | 0.00 | 0.00 | 0.00 | 92 | 1013.7 |
| 20260903053117 | 82 | 0 | 0.0 | 0.0 | 0.00 | 0.00 | 0.00 | 92 | 1014.1 |
| 20260903051604 | 82 | 0 | 0.0 | 0.0 | 0.00 | 0.00 | 0.00 | 91 | 1014.3 |
| 20260903050108 | 82 | 0 | 0.0 | 1.0 | 0.00 | 0.00 | 0.00 | 91 | 1014.5 |
| 20260903044602 | 82 | 0 | 0.0 | 0.0 | 0.00 | 0.00 | 0.00 | 91 | 1014.7 |
| 20260903043114 | 82 | 0 | 0.0 | 0.0 | 0.00 | 0.00 | 0.00 | 91 | 1014.4 |
| 20260903041605 | 82 | 0 | 0.0 | 3.0 | 0.00 | 0.00 | 0.00 | 91 | 1014.0 |
| 20260903034611 | 83 | 0 | 0.0 | 4.0 | 0.00 | 0.00 | 0.00 | 90 | 1014.1 |
| 20260903033104 | 83 | 205 | 0.0 | 3.0 | 0.00 | 0.00 | 0.00 | 89 | 1013.7 |
| 20260903031632 | 83 | 0 | 0.0 | 5.0 | 0.00 | 0.00 | 0.00 | 88 | 1013.5 |
| 20260903024602 | 84 | 0 | 3.0 | 7.0 | 0.00 | 0.00 | 0.00 | 85 | 1013.0 |
| 20260903023106 | 84 | 161 | 1.0 | 4.0 | 0.00 | 0.00 | 0.00 | 84 | 1012.8 |
| 20260903021603 | 84 | 235 | 0.0 | 5.0 | 0.00 | 0.00 | 0.00 | 83 | 1012.9 |
| 20260903020107 | 85 | 247 | 2.0 | 7.0 | 0.00 | 0.00 | 0.00 | 82 | 1012.6 |
| 20260903014604 | 85 | 246 | 3.0 | 9.0 | 0.00 | 0.00 | 0.00 | 80 | 1012.0 |
| 20260903013105 | 86 | 251 | 5.0 | 10.0 | 0.00 | 0.00 | 0.00 | 79 | 1011.9 |
| 20260903011615 | 86 | 243 | 3.0 | 11.0 | 0.00 | 0.00 | 0.00 | 77 | 1011.9 |
| 20260903010106 | 87 | 248 | 2.0 | 8.0 | 0.00 | 0.00 | 0.00 | 74 | 1011.9 |
| 20260903004606 | 88 | 200 | 5.0 | 11.0 | 0.00 | 0.00 | 0.00 | 73 | 1011.7 |